When you browse on this site, cookies collect data to enhance your experience and personalize the content and advertising you see.
Visit our Privacy Policy to learn more. By continuing to use the site, you agree to this use of cookies and data.
  • In Deutschland
  • Länderverzeichnis
  • Für 7 Tage
  • Wassertemperatur
  • Wetterkarte
  • Widgets
  • user-avatar
    Anmelden

    Stündliche Wetter Canillo

    Heute, 20 August, Dienstag

    Zeit Temperatur Niederschläge Wind Luftdruck Luftfeuchtigkeit
    00:00 +12°C° 2.3 mm 1 m/S 621 mmHg 97%
    01:00 +12°C° 0.6 mm 1 m/S 621 mmHg 97%
    02:00 +12°C° 0.6 mm 1 m/S 621 mmHg 97%
    03:00 +12°C° 0.6 mm 1 m/S 621 mmHg 98%
    04:00 +12°C° 2.6 mm 1 m/S 621 mmHg 97%
    05:00 +11°C° 2.6 mm 1 m/S 621 mmHg 97%
    06:00 +11°C° 2.6 mm 1 m/S 621 mmHg 97%
    07:00 +11°C° 3.2 mm 1 m/S 621 mmHg 97%
    08:00 +10°C° 3.2 mm 1 m/S 621 mmHg 96%
    09:00 +10°C° 3.2 mm 1 m/S 622 mmHg 96%
    10:00 +10°C° 2.3 mm 1 m/S 622 mmHg 94%
    11:00 +10°C° 2.3 mm 1 m/S 622 mmHg 93%
    12:00 +10°C° 2.3 mm 1 m/S 622 mmHg 91%
    13:00 +12°C° 0.1 mm 1 m/S 623 mmHg 85%
    14:00 +14°C° 0.1 mm 1 m/S 624 mmHg 78%
    15:00 +15°C° 0.1 mm 2 m/S 624 mmHg 71%
    16:00 +14°C° 0.1 mm 1 m/S 624 mmHg 75%
    17:00 +13°C° 0.1 mm 1 m/S 623 mmHg 79%
    18:00 +12°C° 0.1 mm 1 m/S 623 mmHg 83%
    19:00 +11°C° 0 mm 1 m/S 623 mmHg 86%
    20:00 +10°C° 0 mm 1 m/S 622 mmHg 88%
    21:00 +9°C° 0 mm 1 m/S 622 mmHg 91%
    22:00 +9°C° 0 mm 1 m/S 622 mmHg 90%
    23:00 +8°C° 0 mm 1 m/S 622 mmHg 88%

    Morgen, 21 August, Mittwoch

    Zeit Temperatur Niederschläge Wind Luftdruck Luftfeuchtigkeit
    00:00 +8°C° 0 mm 1 m/S 622 mmHg 87%
    01:00 +8°C° 0 mm 1 m/S 622 mmHg 85%
    02:00 +8°C° 0 mm 1 m/S 621 mmHg 83%
    03:00 +8°C° 0 mm 1 m/S 621 mmHg 81%
    04:00 +8°C° 0 mm 1 m/S 621 mmHg 78%
    05:00 +8°C° 0 mm 1 m/S 621 mmHg 75%
    06:00 +9°C° 0 mm 1 m/S 621 mmHg 72%
    07:00 +11°C° 0 mm 1 m/S 622 mmHg 62%
    08:00 +14°C° 0 mm 1 m/S 623 mmHg 52%
    09:00 +16°C° 0 mm 0 m/S 624 mmHg 42%
    10:00 +19°C° 0 mm 1 m/S 625 mmHg 40%
    11:00 +20°C° 0 mm 1 m/S 625 mmHg 37%
    12:00 +21°C° 0 mm 1 m/S 625 mmHg 35%
    13:00 +21°C° 0 mm 1 m/S 625 mmHg 36%
    14:00 +21°C° 0 mm 1 m/S 624 mmHg 38%
    15:00 +21°C° 0 mm 1 m/S 624 mmHg 39%
    16:00 +19°C° 0 mm 1 m/S 623 mmHg 48%
    17:00 +16°C° 0 mm 1 m/S 623 mmHg 58%
    18:00 +15°C° 0 mm 1 m/S 622 mmHg 67%
    19:00 +13°C° 0 mm 1 m/S 622 mmHg 70%
    20:00 +12°C° 0 mm 1 m/S 622 mmHg 73%
    21:00 +11°C° 0 mm 1 m/S 622 mmHg 76%
    22:00 +11°C° 0 mm 1 m/S 622 mmHg 74%
    23:00 +10°C° 0 mm 1 m/S 622 mmHg 71%

    übermorgen, 22 August, Donnerstag

    Zeit Temperatur Niederschläge Wind Luftdruck Luftfeuchtigkeit
    00:00 +10°C° 0 mm 1 m/S 622 mmHg 69%
    01:00 +10°C° 0 mm 1 m/S 621 mmHg 63%
    02:00 +10°C° 0 mm 1 m/S 621 mmHg 58%
    03:00 +9°C° 0 mm 1 m/S 621 mmHg 52%
    04:00 +8°C° 0 mm 2 m/S 621 mmHg 51%
    05:00 +8°C° 0 mm 2 m/S 621 mmHg 50%
    06:00 +8°C° 0 mm 2 m/S 621 mmHg 49%
    07:00 +12°C° 0 mm 2 m/S 623 mmHg 42%
    08:00 +15°C° 0 mm 1 m/S 624 mmHg 36%
    09:00 +19°C° 0 mm 1 m/S 625 mmHg 30%
    10:00 +20°C° 0 mm 1 m/S 625 mmHg 28%
    11:00 +21°C° 0 mm 1 m/S 626 mmHg 27%
    12:00 +22°C° 0 mm 1 m/S 626 mmHg 26%
    13:00 +22°C° 0 mm 1 m/S 626 mmHg 27%
    14:00 +22°C° 0 mm 1 m/S 625 mmHg 29%
    15:00 +22°C° 0 mm 1 m/S 625 mmHg 31%
    16:00 +20°C° 0 mm 1 m/S 624 mmHg 41%
    17:00 +18°C° 0 mm 1 m/S 624 mmHg 52%
    18:00 +16°C° 0 mm 1 m/S 623 mmHg 62%
    19:00 +14°C° 0 mm 1 m/S 623 mmHg 65%
    20:00 +13°C° 0 mm 1 m/S 622 mmHg 68%
    21:00 +11°C° 0 mm 1 m/S 622 mmHg 71%
    22:00 +11°C° 0 mm 1 m/S 622 mmHg 71%
    23:00 +11°C° 0 mm 1 m/S 622 mmHg 72%

    23 August, Freitag

    Zeit Temperatur Niederschläge Wind Luftdruck Luftfeuchtigkeit
    00:00 +11°C° 0 mm 1 m/S 622 mmHg 73%
    01:00 +11°C° 0 mm 1 m/S 621 mmHg 75%
    02:00 +11°C° 0 mm 1 m/S 621 mmHg 78%
    03:00 +11°C° 0 mm 1 m/S 621 mmHg 81%
    04:00 +11°C° 0 mm 1 m/S 621 mmHg 81%
    05:00 +11°C° 0 mm 1 m/S 621 mmHg 80%
    06:00 +12°C° 0 mm 1 m/S 622 mmHg 79%
    07:00 +14°C° 0 mm 1 m/S 623 mmHg 68%
    08:00 +18°C° 0 mm 1 m/S 624 mmHg 57%
    09:00 +21°C° 0 mm 1 m/S 625 mmHg 46%
    10:00 +22°C° 0 mm 1 m/S 625 mmHg 43%
    11:00 +23°C° 0 mm 2 m/S 625 mmHg 39%
    12:00 +24°C° 0 mm 2 m/S 626 mmHg 35%
    13:00 +24°C° 0 mm 2 m/S 625 mmHg 36%
    14:00 +24°C° 0 mm 2 m/S 625 mmHg 36%
    15:00 +24°C° 0 mm 2 m/S 624 mmHg 37%
    16:00 +21°C° 0 mm 2 m/S 624 mmHg 45%
    17:00 +20°C° 0 mm 1 m/S 623 mmHg 52%
    18:00 +18°C° 0 mm 1 m/S 622 mmHg 60%
    19:00 +16°C° 0 mm 1 m/S 622 mmHg 63%
    20:00 +15°C° 0 mm 1 m/S 622 mmHg 66%
    21:00 +13°C° 0 mm 1 m/S 621 mmHg 68%
    22:00 +13°C° 0 mm 1 m/S 621 mmHg 68%
    23:00 +13°C° 0 mm 1 m/S 621 mmHg 68%

    24 August, Samstag

    Zeit Temperatur Niederschläge Wind Luftdruck Luftfeuchtigkeit
    00:00 +13°C° 0 mm 1 m/S 621 mmHg 68%
    01:00 +13°C° 0 mm 1 m/S 621 mmHg 67%
    02:00 +13°C° 0 mm 1 m/S 621 mmHg 66%
    03:00 +12°C° 0 mm 1 m/S 620 mmHg 65%
    04:00 +13°C° 0 mm 1 m/S 621 mmHg 64%
    05:00 +13°C° 0 mm 1 m/S 621 mmHg 64%
    06:00 +13°C° 0 mm 1 m/S 621 mmHg 63%
    07:00 +16°C° 0 mm 1 m/S 622 mmHg 55%
    08:00 +20°C° 0 mm 1 m/S 624 mmHg 46%
    09:00 +21°C° 0 mm 0 m/S 625 mmHg 38%
    10:00 +24°C° 0 mm 1 m/S 625 mmHg 37%
    11:00 +24°C° 0 mm 1 m/S 625 mmHg 35%
    12:00 +24°C° 0 mm 1 m/S 625 mmHg 34%
    13:00 +23°C° 0 mm 1 m/S 624 mmHg 41%
    14:00 +22°C° 0 mm 1 m/S 623 mmHg 47%
    15:00 +21°C° 0 mm 1 m/S 623 mmHg 54%
    16:00 +20°C° 0 mm 1 m/S 622 mmHg 57%
    17:00 +19°C° 0 mm 1 m/S 622 mmHg 61%
    18:00 +18°C° 0 mm 1 m/S 621 mmHg 64%
    19:00 +16°C° 0 mm 1 m/S 621 mmHg 65%
    20:00 +15°C° 0 mm 1 m/S 621 mmHg 66%
    21:00 +15°C° 0 mm 1 m/S 621 mmHg 67%
    22:00 +14°C° 0 mm 1 m/S 621 mmHg 67%
    23:00 +14°C° 0 mm 1 m/S 621 mmHg 68%

    25 August, Sonntag

    Zeit Temperatur Niederschläge Wind Luftdruck Luftfeuchtigkeit
    00:00 +13°C° 0 mm 1 m/S 621 mmHg 69%
    01:00 +13°C° 0 mm 1 m/S 620 mmHg 68%
    02:00 +13°C° 0 mm 1 m/S 620 mmHg 67%
    03:00 +13°C° 0 mm 1 m/S 620 mmHg 66%
    04:00 +13°C° 0 mm 1 m/S 620 mmHg 65%
    05:00 +13°C° 0 mm 1 m/S 620 mmHg 64%
    06:00 +14°C° 0 mm 1 m/S 620 mmHg 62%
    07:00 +16°C° 0 mm 1 m/S 622 mmHg 55%
    08:00 +20°C° 0 mm 1 m/S 623 mmHg 47%
    09:00 +23°C° 0 mm 1 m/S 624 mmHg 40%
    10:00 +23°C° 0 mm 1 m/S 624 mmHg 40%
    11:00 +23°C° 0 mm 1 m/S 624 mmHg 40%
    12:00 +23°C° 0 mm 1 m/S 623 mmHg 40%
    13:00 +22°C° 0.3 mm 1 m/S 623 mmHg 48%
    14:00 +21°C° 0.3 mm 1 m/S 622 mmHg 56%
    15:00 +20°C° 0.3 mm 1 m/S 622 mmHg 63%
    16:00 +19°C° 0.7 mm 1 m/S 621 mmHg 69%
    17:00 +18°C° 0.7 mm 1 m/S 621 mmHg 74%
    18:00 +16°C° 0.7 mm 1 m/S 620 mmHg 80%
    19:00 +15°C° 0.3 mm 1 m/S 621 mmHg 81%
    20:00 +14°C° 0.3 mm 1 m/S 621 mmHg 82%
    21:00 +14°C° 0.3 mm 1 m/S 621 mmHg 84%
    22:00 +14°C° 0 mm 1 m/S 621 mmHg 83%
    23:00 +13°C° 0 mm 1 m/S 621 mmHg 82%
    Mehr zeigen